OCN47C DTTJ-EDDM

Flight info

Callsign OCN47C
Flight time 2h 12m
Altitude 38000
Route JBA UM731 TUC UA725 OSMAR DCT TIVUK DCT QUENN DCT MAMAR DCT BOA DCT BENUS DCT OSTEG DCT ADOSA DCT GUNGO DCT IVKAL T102 NINUR T101 BETOS BETOS1B
Aircraft A320/M-SDE2E3FGIJ1LORWXYZ/HB1

Departure

Time 2026-05-05 19:40
Airport Djerba Zarzis International Airport (DTTJ)

Arrival

Time 2026-05-05 21:53
Airport Munich Airport (EDDM)
Time Latitude Longitude Altitude Speed Heading
2026-05-05 19:17 33.87278 10.77433 27 ft 0 kts 134°
2026-05-05 19:32 33.87279 10.77433 27 ft 1 kts 134°
2026-05-05 19:32 33.87288 10.77421 27 ft 3 kts 134°
2026-05-05 19:33 33.87302 10.77404 27 ft 3 kts 134°
2026-05-05 19:33 33.87317 10.77387 27 ft 3 kts 134°
2026-05-05 19:33 33.87330 10.77370 27 ft 2 kts 134°
2026-05-05 19:33 33.87342 10.77357 27 ft 3 kts 155°
2026-05-05 19:34 33.87357 10.77353 27 ft 3 kts 207°
2026-05-05 19:34 33.87371 10.77367 27 ft 3 kts 242°
2026-05-05 19:34 33.87378 10.77389 27 ft 2 kts 263°
2026-05-05 19:35 33.87379 10.77398 27 ft 0 kts 268°
2026-05-05 19:36 33.87378 10.77379 27 ft 6 kts 268°
2026-05-05 19:37 33.87371 10.77287 27 ft 16 kts 258°
2026-05-05 19:37 33.87364 10.77137 27 ft 18 kts 268°
2026-05-05 19:37 33.87360 10.76991 27 ft 17 kts 268°
2026-05-05 19:37 33.87356 10.76851 24 ft 17 kts 268°
2026-05-05 19:38 33.87352 10.76705 21 ft 18 kts 268°
2026-05-05 19:38 33.87348 10.76557 20 ft 17 kts 268°
2026-05-05 19:38 33.87344 10.76422 21 ft 15 kts 268°
2026-05-05 19:38 33.87341 10.76295 19 ft 16 kts 268°
2026-05-05 19:39 33.87339 10.76159 16 ft 16 kts 271°
2026-05-05 19:39 33.87385 10.76055 18 ft 14 kts 342°
2026-05-05 19:39 33.87467 10.76054 21 ft 10 kts 10°
2026-05-05 19:39 33.87504 10.76111 23 ft 9 kts 79°
2026-05-05 19:40 33.87509 10.76297 21 ft 53 kts 88°
2026-05-05 19:40 33.87528 10.77010 20 ft 114 kts 89°
2026-05-05 19:40 33.87552 10.78157 129 ft 152 kts 87°
2026-05-05 19:40 33.87621 10.79414 824 ft 150 kts 75°
2026-05-05 19:41 33.88122 10.80535 1456 ft 162 kts 52°
2026-05-05 19:41 33.89167 10.81287 1789 ft 195 kts 19°
2026-05-05 19:41 33.90617 10.81095 2113 ft 232 kts 337°
2026-05-05 19:41 33.92007 10.80036 2882 ft 236 kts 328°
2026-05-05 19:42 33.93356 10.78894 3715 ft 240 kts 325°
2026-05-05 19:42 33.94719 10.77723 4537 ft 241 kts 323°
2026-05-05 19:42 33.96082 10.76567 5421 ft 239 kts 327°
2026-05-05 19:42 33.97651 10.75884 6231 ft 245 kts 351°
2026-05-05 19:43 33.99365 10.75688 6898 ft 255 kts 352°
2026-05-05 19:43 34.01216 10.75500 7266 ft 279 kts 353°
2026-05-05 19:43 34.03191 10.75310 7931 ft 289 kts 352°
2026-05-05 19:43 34.05208 10.75123 8800 ft 292 kts 353°
2026-05-05 19:44 34.07244 10.74936 9697 ft 294 kts 352°
2026-05-05 19:44 34.09312 10.74741 10342 ft 307 kts 352°
2026-05-05 19:44 34.11517 10.74524 10645 ft 328 kts 353°
2026-05-05 19:44 34.13826 10.74297 11289 ft 336 kts 352°
2026-05-05 19:45 34.16175 10.74069 12046 ft 341 kts 352°
2026-05-05 19:45 34.18549 10.73839 12823 ft 344 kts 353°
2026-05-05 19:45 34.20950 10.73602 13594 ft 348 kts 353°
2026-05-05 19:45 34.23376 10.73363 14275 ft 352 kts 353°
2026-05-05 19:46 34.25829 10.73122 14928 ft 355 kts 352°
2026-05-05 19:46 34.28306 10.72877 15580 ft 359 kts 352°
2026-05-05 19:46 34.30789 10.72474 16206 ft 361 kts 347°
2026-05-05 19:46 34.33277 10.71956 16852 ft 365 kts 347°
2026-05-05 19:47 34.35794 10.71433 17505 ft 369 kts 346°
2026-05-05 19:47 34.38335 10.70904 18156 ft 372 kts 346°
2026-05-05 19:47 34.40901 10.70368 18723 ft 376 kts 346°
2026-05-05 19:47 34.43485 10.69828 19295 ft 378 kts 346°
2026-05-05 19:48 34.46087 10.69283 19868 ft 381 kts 346°
2026-05-05 19:48 34.48703 10.68734 20438 ft 383 kts 346°
2026-05-05 19:48 34.51340 10.68182 20995 ft 386 kts 346°
2026-05-05 19:48 34.53994 10.67624 21545 ft 389 kts 346°
2026-05-05 19:49 34.56671 10.67062 22051 ft 392 kts 346°
2026-05-05 19:49 34.58455 10.66689 22393 ft 394 kts 346°
2026-05-05 19:49 34.62086 10.65925 23085 ft 398 kts 347°
2026-05-05 19:49 34.64822 10.65349 23580 ft 400 kts 347°
2026-05-05 19:50 34.67575 10.64772 24006 ft 403 kts 347°
2026-05-05 19:50 34.70347 10.64191 24433 ft 405 kts 346°
2026-05-05 19:50 34.73133 10.63605 24845 ft 407 kts 346°
2026-05-05 19:50 34.75934 10.63015 25256 ft 410 kts 346°
2026-05-05 19:51 34.78752 10.62422 25671 ft 412 kts 346°
2026-05-05 19:51 34.81584 10.61824 26073 ft 414 kts 346°
2026-05-05 19:51 34.84432 10.61223 26472 ft 417 kts 346°
2026-05-05 19:51 34.87295 10.60622 26862 ft 419 kts 346°
2026-05-05 19:52 34.90175 10.60015 27257 ft 421 kts 346°
2026-05-05 19:52 34.93071 10.59403 27641 ft 423 kts 346°
2026-05-05 19:52 34.95980 10.58784 28023 ft 425 kts 346°
2026-05-05 19:52 34.98902 10.58162 28412 ft 428 kts 346°
2026-05-05 19:53 35.01842 10.57536 28792 ft 430 kts 346°
2026-05-05 19:53 35.04797 10.56909 29171 ft 433 kts 346°
2026-05-05 19:53 35.07771 10.56281 29540 ft 435 kts 346°
2026-05-05 19:53 35.10760 10.55652 29904 ft 437 kts 346°
2026-05-05 19:54 35.13741 10.55022 30218 ft 439 kts 346°
2026-05-05 19:54 35.16761 10.54381 30510 ft 441 kts 346°
2026-05-05 19:54 35.19789 10.53733 30796 ft 443 kts 346°
2026-05-05 19:54 35.22830 10.53081 31072 ft 445 kts 346°
2026-05-05 19:55 35.25886 10.52429 31341 ft 447 kts 346°
2026-05-05 19:55 35.28956 10.51774 31624 ft 448 kts 346°
2026-05-05 19:55 35.32023 10.51123 32035 ft 447 kts 346°
2026-05-05 19:55 35.35088 10.50474 32418 ft 446 kts 346°
2026-05-05 19:56 35.38141 10.49828 32797 ft 445 kts 346°
2026-05-05 19:56 35.41187 10.49179 33158 ft 444 kts 346°
2026-05-05 19:56 35.44238 10.48523 33523 ft 444 kts 346°
2026-05-05 19:56 35.47278 10.47868 33885 ft 443 kts 345°
2026-05-05 19:57 35.50312 10.47211 34222 ft 443 kts 345°
2026-05-05 19:57 35.52324 10.46776 34427 ft 443 kts 345°
2026-05-05 19:57 35.56379 10.45902 34835 ft 442 kts 345°
2026-05-05 19:57 35.59407 10.45251 35132 ft 441 kts 345°
2026-05-05 19:58 35.62428 10.44602 35424 ft 440 kts 345°
2026-05-05 19:58 35.65444 10.43956 35714 ft 440 kts 345°
2026-05-05 19:58 35.68421 10.43315 35989 ft 439 kts 345°
2026-05-05 19:58 35.71465 10.42656 36270 ft 438 kts 345°
2026-05-05 19:59 35.74475 10.42047 36535 ft 438 kts 346°
2026-05-05 19:59 35.77495 10.41510 36789 ft 439 kts 347°
2026-05-05 19:59 35.80521 10.41018 37055 ft 438 kts 347°
2026-05-05 19:59 35.83546 10.40543 37304 ft 438 kts 347°
2026-05-05 20:00 35.86563 10.40066 37542 ft 437 kts 347°
2026-05-05 20:00 35.89545 10.39584 37776 ft 437 kts 347°
2026-05-05 20:00 35.92556 10.39084 37968 ft 437 kts 346°
2026-05-05 20:01 35.98567 10.38052 38003 ft 435 kts 346°
2026-05-05 20:01 36.04568 10.37014 38001 ft 435 kts 346°
2026-05-05 20:02 36.10563 10.35990 38004 ft 435 kts 346°
2026-05-05 20:02 36.16563 10.34965 38007 ft 435 kts 346°
2026-05-05 20:03 36.22564 10.33941 38006 ft 435 kts 346°
2026-05-05 20:03 36.28562 10.32911 38019 ft 435 kts 346°
2026-05-05 20:04 36.34565 10.31874 38031 ft 435 kts 347°
2026-05-05 20:04 36.39559 10.31013 38038 ft 436 kts 347°
2026-05-05 20:05 36.45572 10.29979 38036 ft 436 kts 347°
2026-05-05 20:05 36.51581 10.28942 38027 ft 436 kts 347°
2026-05-05 20:06 36.57598 10.27903 38032 ft 436 kts 347°
2026-05-05 20:06 36.63581 10.26864 38009 ft 436 kts 347°
2026-05-05 20:07 36.69598 10.25821 37998 ft 436 kts 347°
2026-05-05 20:07 36.75616 10.24783 37987 ft 436 kts 347°
2026-05-05 20:08 36.81626 10.23739 38000 ft 436 kts 347°
2026-05-05 20:08 36.87563 10.22369 37991 ft 432 kts 341°
2026-05-05 20:09 36.93393 10.20553 37989 ft 432 kts 341°
2026-05-05 20:09 36.99232 10.18750 37996 ft 433 kts 341°
2026-05-05 20:10 37.05078 10.16934 38004 ft 433 kts 341°
2026-05-05 20:10 37.10930 10.15112 38000 ft 434 kts 341°
2026-05-05 20:11 37.16788 10.13280 37995 ft 434 kts 341°
2026-05-05 20:11 37.22653 10.11440 37985 ft 434 kts 341°
2026-05-05 20:12 37.28492 10.09613 38025 ft 435 kts 341°
2026-05-05 20:12 37.34360 10.07772 38018 ft 435 kts 341°
2026-05-05 20:13 37.40241 10.05920 38014 ft 435 kts 341°
2026-05-05 20:13 37.46115 10.04073 38011 ft 435 kts 341°
2026-05-05 20:14 37.51990 10.02207 38009 ft 435 kts 341°
2026-05-05 20:14 37.57872 10.00347 38016 ft 436 kts 341°
2026-05-05 20:15 37.63755 9.98484 38012 ft 436 kts 341°
2026-05-05 20:15 37.69635 9.96620 38007 ft 436 kts 341°
2026-05-05 20:16 37.75518 9.94734 38006 ft 436 kts 341°
2026-05-05 20:16 37.81393 9.92850 38028 ft 436 kts 341°
2026-05-05 20:17 37.87249 9.90987 38018 ft 436 kts 341°
2026-05-05 20:17 37.93138 9.89112 38013 ft 436 kts 341°
2026-05-05 20:18 37.99032 9.87234 38010 ft 436 kts 341°
2026-05-05 20:18 38.04920 9.85351 38009 ft 436 kts 341°
2026-05-05 20:19 38.10810 9.83448 38013 ft 436 kts 341°
2026-05-05 20:19 38.16699 9.81554 38014 ft 437 kts 341°
2026-05-05 20:20 38.22610 9.79717 38008 ft 439 kts 346°
2026-05-05 20:20 38.28777 9.79552 38017 ft 451 kts
2026-05-05 20:21 38.34961 9.81037 37991 ft 453 kts
2026-05-05 20:21 38.41161 9.82558 37989 ft 454 kts
2026-05-05 20:22 38.47322 9.84068 37994 ft 454 kts
2026-05-05 20:22 38.53529 9.85589 38007 ft 454 kts
2026-05-05 20:23 38.59729 9.87106 38021 ft 454 kts
2026-05-05 20:23 38.65933 9.88632 38020 ft 454 kts
2026-05-05 20:24 38.72137 9.90162 38035 ft 454 kts
2026-05-05 20:24 38.78338 9.91696 38027 ft 454 kts
2026-05-05 20:25 38.84543 9.93271 38018 ft 455 kts 11°
2026-05-05 20:25 38.90582 9.95869 38020 ft 458 kts 16°
2026-05-05 20:26 38.96555 9.98604 38030 ft 459 kts 16°
2026-05-05 20:26 39.02586 10.01372 38017 ft 459 kts 16°
2026-05-05 20:27 39.08614 10.04120 38023 ft 460 kts 16°
2026-05-05 20:27 39.14648 10.06878 38030 ft 460 kts 16°
2026-05-05 20:28 39.20686 10.09654 38022 ft 461 kts 16°
2026-05-05 20:28 39.26732 10.12439 38013 ft 461 kts 16°
2026-05-05 20:29 39.32755 10.15214 38012 ft 462 kts 16°
2026-05-05 20:29 39.38820 10.18013 38032 ft 462 kts 16°
2026-05-05 20:30 39.44883 10.20827 37995 ft 463 kts 16°
2026-05-05 20:30 39.50951 10.23643 38009 ft 463 kts 16°
2026-05-05 20:31 39.57019 10.26453 38015 ft 463 kts 16°
2026-05-05 20:31 39.63091 10.29276 38029 ft 463 kts 16°
2026-05-05 20:32 39.69120 10.32089 38028 ft 463 kts 16°
2026-05-05 20:32 39.75187 10.34928 38024 ft 463 kts 16°
2026-05-05 20:33 39.81263 10.37770 38046 ft 464 kts 16°
2026-05-05 20:33 39.87340 10.40622 38023 ft 464 kts 16°
2026-05-05 20:34 39.93394 10.43458 38025 ft 464 kts 16°
2026-05-05 20:34 39.99482 10.46322 38024 ft 465 kts 16°
2026-05-05 20:35 40.05562 10.49191 38036 ft 465 kts 16°
2026-05-05 20:35 40.11652 10.52067 38026 ft 465 kts 16°
2026-05-05 20:36 40.17768 10.54780 38029 ft 462 kts 10°
2026-05-05 20:36 40.24000 10.56840 38024 ft 462 kts 10°
2026-05-05 20:37 40.30237 10.58892 38013 ft 462 kts 10°
2026-05-05 20:37 40.36467 10.60950 38022 ft 461 kts 10°
2026-05-05 20:38 40.42685 10.63013 38048 ft 461 kts 10°
2026-05-05 20:38 40.48910 10.65077 38039 ft 461 kts 10°
2026-05-05 20:39 40.55088 10.67142 38033 ft 460 kts 10°
2026-05-05 20:39 40.61305 10.69212 38026 ft 460 kts 10°
2026-05-05 20:40 40.67517 10.71291 38035 ft 460 kts 10°
2026-05-05 20:40 40.73722 10.73376 38031 ft 460 kts 10°
2026-05-05 20:41 40.79924 10.75457 38027 ft 460 kts 10°
2026-05-05 20:41 40.86128 10.77539 38044 ft 460 kts 10°
2026-05-05 20:42 40.92333 10.79626 38036 ft 460 kts 10°
2026-05-05 20:42 40.98545 10.81723 38026 ft 460 kts 10°
2026-05-05 20:43 41.04751 10.83826 38020 ft 460 kts 10°
2026-05-05 20:43 41.10960 10.85932 38031 ft 460 kts 10°
2026-05-05 20:44 41.17137 10.88021 38030 ft 460 kts 10°
2026-05-05 20:44 41.23357 10.90137 38027 ft 460 kts 10°
2026-05-05 20:45 41.32664 10.93322 38042 ft 460 kts
2026-05-05 20:45 41.38830 10.95449 38035 ft 460 kts
2026-05-05 20:46 41.45037 10.97574 38027 ft 460 kts
2026-05-05 20:46 41.51241 10.99696 38039 ft 460 kts
2026-05-05 20:47 41.57438 11.01827 38037 ft 459 kts
2026-05-05 20:47 41.63628 11.03954 38031 ft 459 kts
2026-05-05 20:48 41.69815 11.06093 38049 ft 459 kts
2026-05-05 20:48 41.74955 11.07878 38049 ft 459 kts
2026-05-05 20:49 41.81153 11.09760 38035 ft 452 kts 360°
2026-05-05 20:49 41.87378 11.10229 38046 ft 448 kts 356°
2026-05-05 20:50 41.93612 11.10647 38028 ft 448 kts 356°
2026-05-05 20:50 41.99839 11.11083 38022 ft 448 kts 356°
2026-05-05 20:51 42.06065 11.11506 38025 ft 448 kts 356°
2026-05-05 20:51 42.12301 11.11931 38034 ft 448 kts 356°
2026-05-05 20:52 42.18539 11.12352 38024 ft 449 kts 356°
2026-05-05 20:52 42.24785 11.12776 38020 ft 449 kts 356°
2026-05-05 20:53 42.30997 11.13205 38017 ft 449 kts 356°
2026-05-05 20:53 42.37282 11.13636 38018 ft 449 kts 356°
2026-05-05 20:54 42.43499 11.14065 38021 ft 450 kts 356°
2026-05-05 20:54 42.49753 11.14504 38030 ft 450 kts 356°
2026-05-05 20:55 42.56001 11.14940 38017 ft 450 kts 356°
2026-05-05 20:55 42.62258 11.15379 38011 ft 451 kts 356°
2026-05-05 20:56 42.68526 11.15809 38038 ft 451 kts 356°
2026-05-05 20:56 42.74809 11.16231 38007 ft 452 kts 356°
2026-05-05 20:57 42.81067 11.16671 37996 ft 453 kts 356°
2026-05-05 20:57 42.87374 11.17117 37999 ft 453 kts 356°
2026-05-05 20:58 42.93693 11.17555 38024 ft 454 kts 355°
2026-05-05 20:58 43.00009 11.18005 38018 ft 455 kts 356°
2026-05-05 20:59 43.06292 11.18458 38015 ft 455 kts 355°
2026-05-05 20:59 43.12625 11.18900 38029 ft 456 kts 356°
2026-05-05 21:00 43.18964 11.19341 38019 ft 456 kts 355°
2026-05-05 21:00 43.25306 11.19781 38011 ft 457 kts 356°
2026-05-05 21:01 43.31652 11.20233 38033 ft 456 kts 356°
2026-05-05 21:01 43.37990 11.20687 38036 ft 456 kts 356°
2026-05-05 21:02 43.44286 11.21141 38032 ft 455 kts 356°
2026-05-05 21:02 43.50624 11.21596 38038 ft 455 kts 356°
2026-05-05 21:03 43.56937 11.22046 38034 ft 454 kts 356°
2026-05-05 21:03 43.63245 11.22492 38026 ft 453 kts 356°
2026-05-05 21:04 43.69551 11.22947 38043 ft 453 kts 356°
2026-05-05 21:04 43.75805 11.23400 38023 ft 453 kts 356°
2026-05-05 21:05 43.82093 11.23854 38023 ft 452 kts 356°
2026-05-05 21:05 43.88380 11.24306 38030 ft 452 kts 355°
2026-05-05 21:06 43.94671 11.24753 38016 ft 453 kts 355°
2026-05-05 21:06 44.00963 11.25208 38013 ft 453 kts 355°
2026-05-05 21:07 44.07271 11.25666 38038 ft 454 kts 355°
2026-05-05 21:07 44.13595 11.26134 37999 ft 456 kts 356°
2026-05-05 21:08 44.19947 11.26595 37982 ft 457 kts 355°
2026-05-05 21:08 44.26310 11.27060 37989 ft 459 kts 355°
2026-05-05 21:09 44.32654 11.27525 37992 ft 459 kts 356°
2026-05-05 21:09 44.39036 11.27991 37993 ft 459 kts 356°
2026-05-05 21:10 44.45417 11.28460 38014 ft 459 kts 356°
2026-05-05 21:10 44.51793 11.28929 38014 ft 458 kts 355°
2026-05-05 21:11 44.58017 11.28048 38013 ft 446 kts 343°
2026-05-05 21:11 44.64157 11.26604 38015 ft 447 kts 344°
2026-05-05 21:12 44.70297 11.25189 38018 ft 446 kts 344°
2026-05-05 21:12 44.76332 11.23773 38011 ft 446 kts 344°
2026-05-05 21:13 44.82450 11.22327 38010 ft 445 kts 344°
2026-05-05 21:13 44.88564 11.20882 38012 ft 446 kts 344°
2026-05-05 21:14 44.94683 11.19433 38011 ft 446 kts 344°
2026-05-05 21:14 45.00843 11.17971 37992 ft 446 kts 344°
2026-05-05 21:15 45.06965 11.16511 37989 ft 446 kts 344°
2026-05-05 21:15 45.13052 11.15062 37978 ft 447 kts 344°
2026-05-05 21:16 45.19228 11.13589 37980 ft 447 kts 344°
2026-05-05 21:16 45.25363 11.12114 37991 ft 447 kts 345°
2026-05-05 21:17 45.31504 11.10632 37993 ft 448 kts 345°
2026-05-05 21:17 45.37649 11.09147 38010 ft 448 kts 345°
2026-05-05 21:18 45.43767 11.07664 38016 ft 448 kts 345°
2026-05-05 21:18 45.49917 11.06177 38018 ft 448 kts 345°
2026-05-05 21:19 45.56069 11.04698 38015 ft 449 kts 345°
2026-05-05 21:19 45.62219 11.03208 38016 ft 448 kts 345°
2026-05-05 21:20 45.68508 11.02825 38020 ft 457 kts 357°
2026-05-05 21:20 45.74864 11.03150 38013 ft 458 kts 358°
2026-05-05 21:21 45.81241 11.03476 38005 ft 459 kts 358°
2026-05-05 21:21 45.87635 11.03796 38014 ft 460 kts 358°
2026-05-05 21:22 45.94036 11.04120 38007 ft 461 kts 358°
2026-05-05 21:22 46.00449 11.04437 38011 ft 461 kts 358°
2026-05-05 21:23 46.06911 11.04728 38041 ft 462 kts 358°
2026-05-05 21:23 46.13298 11.05022 38035 ft 463 kts 358°
2026-05-05 21:24 46.19782 11.05365 38044 ft 464 kts 358°
2026-05-05 21:24 46.26236 11.05712 38052 ft 464 kts 358°
2026-05-05 21:25 46.32645 11.06033 38053 ft 464 kts 358°
2026-05-05 21:25 46.38056 11.06293 38058 ft 464 kts 358°
2026-05-05 21:26 46.45550 11.06452 38007 ft 463 kts 354°
2026-05-05 21:26 46.51976 11.05961 38000 ft 462 kts 351°
2026-05-05 21:27 46.58398 11.05305 37990 ft 463 kts 352°
2026-05-05 21:27 46.64838 11.04767 37968 ft 465 kts 353°
2026-05-05 21:28 46.71301 11.04319 37965 ft 465 kts 353°
2026-05-05 21:28 46.77775 11.03872 37995 ft 465 kts 353°
2026-05-05 21:29 46.83171 11.03284 37987 ft 463 kts 349°
2026-05-05 21:29 46.89550 11.02036 37962 ft 462 kts 347°
2026-05-05 21:30 46.95963 11.01117 37941 ft 468 kts 359°
2026-05-05 21:30 46.99220 11.01501 37349 ft 474 kts
2026-05-05 21:30 47.02522 11.01978 36547 ft 478 kts
2026-05-05 21:31 47.05838 11.02503 35683 ft 482 kts
2026-05-05 21:31 47.09193 11.03048 34819 ft 488 kts
2026-05-05 21:31 47.12563 11.03594 34156 ft 486 kts
2026-05-05 21:31 47.15916 11.04129 33494 ft 483 kts
2026-05-05 21:32 47.19244 11.04647 32915 ft 479 kts
2026-05-05 21:32 47.22542 11.05156 32332 ft 474 kts
2026-05-05 21:32 47.25808 11.05656 31779 ft 470 kts
2026-05-05 21:32 47.29047 11.06149 31234 ft 465 kts
2026-05-05 21:33 47.32249 11.06634 30704 ft 461 kts
2026-05-05 21:33 47.35429 11.07114 30206 ft 457 kts
2026-05-05 21:33 47.38579 11.07593 29647 ft 454 kts
2026-05-05 21:33 47.41706 11.08071 29048 ft 450 kts
2026-05-05 21:34 47.44805 11.08548 28480 ft 445 kts
2026-05-05 21:34 47.47870 11.09022 27925 ft 441 kts
2026-05-05 21:34 47.50914 11.09495 27352 ft 438 kts
2026-05-05 21:34 47.53931 11.09973 26803 ft 434 kts
2026-05-05 21:35 47.56870 11.10975 26282 ft 434 kts 18°
2026-05-05 21:35 47.59593 11.12895 25754 ft 433 kts 29°
2026-05-05 21:35 47.62188 11.15136 25213 ft 431 kts 29°
2026-05-05 21:35 47.64764 11.17376 24699 ft 428 kts 30°
2026-05-05 21:36 47.67319 11.19610 24201 ft 425 kts 30°
2026-05-05 21:36 47.69853 11.21829 23730 ft 421 kts 29°
2026-05-05 21:36 47.72368 11.24023 23229 ft 418 kts 29°
2026-05-05 21:36 47.74971 11.25856 22704 ft 411 kts 18°
2026-05-05 21:37 47.77643 11.27328 22204 ft 407 kts 18°
2026-05-05 21:37 47.80269 11.28778 21396 ft 400 kts 18°
2026-05-05 21:37 47.82858 11.30216 20586 ft 394 kts 18°
2026-05-05 21:37 47.85404 11.31636 19816 ft 387 kts 18°
2026-05-05 21:38 47.87916 11.32978 19076 ft 380 kts 13°
2026-05-05 21:38 47.90484 11.33628 18359 ft 370 kts
2026-05-05 21:38 47.93038 11.33842 17537 ft 365 kts
2026-05-05 21:38 47.95556 11.34053 16741 ft 360 kts
2026-05-05 21:39 47.98041 11.34264 15968 ft 355 kts
2026-05-05 21:39 48.00523 11.34477 15220 ft 350 kts
2026-05-05 21:39 48.02938 11.34687 14495 ft 346 kts
2026-05-05 21:39 48.05316 11.35069 13788 ft 343 kts 11°
2026-05-05 21:40 48.07551 11.36264 13022 ft 341 kts 26°
2026-05-05 21:40 48.09480 11.38245 12588 ft 329 kts 39°
2026-05-05 21:40 48.11231 11.40394 12451 ft 324 kts 38°
2026-05-05 21:40 48.12981 11.42496 12273 ft 322 kts 37°
2026-05-05 21:41 48.14731 11.44583 12058 ft 323 kts 37°
2026-05-05 21:41 48.16481 11.46670 11754 ft 320 kts 37°
2026-05-05 21:41 48.18217 11.48753 11447 ft 319 kts 37°
2026-05-05 21:41 48.19941 11.50827 11145 ft 318 kts 37°
2026-05-05 21:42 48.21624 11.52902 10847 ft 318 kts 42°
2026-05-05 21:42 48.23023 11.55458 10534 ft 318 kts 58°
2026-05-05 21:42 48.23932 11.58461 10244 ft 317 kts 75°
2026-05-05 21:42 48.24324 11.61740 9953 ft 315 kts 86°
2026-05-05 21:43 48.24567 11.64956 9651 ft 314 kts 85°
2026-05-05 21:43 48.24823 11.68238 9335 ft 311 kts 84°
2026-05-05 21:43 48.25074 11.71451 9024 ft 309 kts 84°
2026-05-05 21:43 48.25319 11.74603 8716 ft 307 kts 84°
2026-05-05 21:44 48.25563 11.77774 8410 ft 305 kts 84°
2026-05-05 21:44 48.25804 11.80925 8105 ft 303 kts 84°
2026-05-05 21:44 48.26043 11.84056 7790 ft 301 kts 84°
2026-05-05 21:44 48.26279 11.87156 7500 ft 296 kts 84°
2026-05-05 21:45 48.26512 11.90196 7203 ft 291 kts 84°
2026-05-05 21:45 48.26739 11.93184 6911 ft 286 kts 84°
2026-05-05 21:45 48.26964 11.96131 6615 ft 283 kts 84°
2026-05-05 21:45 48.27184 11.99048 6325 ft 280 kts 84°
2026-05-05 21:46 48.27403 12.01949 6018 ft 279 kts 84°
2026-05-05 21:46 48.27618 12.04832 5710 ft 278 kts 84°
2026-05-05 21:46 48.27877 12.07705 5402 ft 277 kts 75°
2026-05-05 21:46 48.28748 12.10222 5110 ft 270 kts 44°
2026-05-05 21:47 48.30240 12.11731 4936 ft 252 kts 14°
2026-05-05 21:47 48.31918 12.12065 4763 ft 239 kts 356°
2026-05-05 21:47 48.33571 12.12046 4589 ft 236 kts 352°
2026-05-05 21:47 48.35085 12.11325 4403 ft 226 kts 322°
2026-05-05 21:48 48.36123 12.09646 4231 ft 217 kts 294°
2026-05-05 21:48 48.36488 12.07528 4081 ft 207 kts 269°
2026-05-05 21:48 48.36356 12.05429 3998 ft 196 kts 264°
2026-05-05 21:48 48.36209 12.03466 4007 ft 180 kts 264°
2026-05-05 21:49 48.36074 12.01659 4009 ft 169 kts 264°
2026-05-05 21:49 48.35945 11.99922 3956 ft 166 kts 264°
2026-05-05 21:49 48.35818 11.98218 3820 ft 163 kts 264°
2026-05-05 21:49 48.35691 11.96527 3611 ft 162 kts 264°
2026-05-05 21:50 48.35565 11.94845 3404 ft 161 kts 264°
2026-05-05 21:50 48.35440 11.93174 3195 ft 159 kts 264°
2026-05-05 21:50 48.35323 11.91618 2990 ft 142 kts 264°
2026-05-05 21:50 48.35215 11.90188 2811 ft 135 kts 263°
2026-05-05 21:51 48.35111 11.88807 2622 ft 132 kts 263°
2026-05-05 21:51 48.35008 11.87442 2456 ft 131 kts 263°
2026-05-05 21:51 48.34902 11.86081 2240 ft 131 kts 263°
2026-05-05 21:51 48.34802 11.84714 2024 ft 132 kts 263°
2026-05-05 21:52 48.34595 11.81979 1681 ft 131 kts 263°
2026-05-05 21:52 48.34493 11.80618 1523 ft 131 kts 264°
2026-05-05 21:52 48.34392 11.79302 1481 ft 115 kts 263°
2026-05-05 21:53 48.34320 11.78377 1479 ft 53 kts 263°
2026-05-05 21:53 48.34324 11.77988 1479 ft 35 kts 284°
2026-05-05 21:53 48.34389 11.77738 1481 ft 16 kts 293°
2026-05-05 21:53 48.34435 11.77578 1484 ft 18 kts 292°
2026-05-05 21:54 48.34514 11.77440 1483 ft 18 kts 346°
2026-05-05 21:54 48.34629 11.77474 1478 ft 18 kts 66°
2026-05-05 21:54 48.34644 11.77647 1483 ft 16 kts 83°
2026-05-05 21:54 48.34657 11.77804 1485 ft 14 kts 83°
2026-05-05 21:55 48.34667 11.77947 1482 ft 13 kts 83°
2026-05-05 21:55 48.34678 11.78078 1485 ft 12 kts 83°
2026-05-05 21:55 48.34687 11.78196 1480 ft 11 kts 83°
2026-05-05 21:55 48.34695 11.78303 1485 ft 10 kts 84°
2026-05-05 21:56 48.34702 11.78401 1481 ft 9 kts 83°
2026-05-05 21:56 48.34710 11.78505 1475 ft 12 kts 83°
2026-05-05 21:56 48.34722 11.78660 1485 ft 18 kts 83°
2026-05-05 21:56 48.34738 11.78870 1475 ft 23 kts 83°
2026-05-05 21:57 48.34758 11.79132 1485 ft 27 kts 83°
2026-05-05 21:57 48.34781 11.79417 1485 ft 21 kts 84°
2026-05-05 21:57 48.34834 11.79559 1482 ft 16 kts
2026-05-05 21:57 48.34945 11.79543 1481 ft 17 kts 358°
2026-05-05 21:58 48.35032 11.79636 1477 ft 15 kts 29°
2026-05-05 21:58 48.35100 11.79725 1483 ft 13 kts 73°
2026-05-05 21:58 48.35112 11.79851 1483 ft 12 kts 83°
2026-05-05 21:58 48.35121 11.79965 1483 ft 11 kts 83°
2026-05-05 21:59 48.35129 11.80069 1474 ft 10 kts 83°
2026-05-05 21:59 48.35137 11.80164 1485 ft 9 kts 83°
2026-05-05 21:59 48.35143 11.80249 1475 ft 8 kts 83°
2026-05-05 21:59 48.35149 11.80325 1485 ft 7 kts 83°
2026-05-05 22:00 48.35156 11.80406 1482 ft 9 kts 83°
2026-05-05 22:00 48.35164 11.80508 1485 ft 11 kts 83°
2026-05-05 22:00 48.35190 11.80610 1482 ft 11 kts 15°
2026-05-05 22:00 48.35255 11.80597 1482 ft 0 kts 353°
2026-05-05 22:01 48.35257 11.80597 1483 ft 0 kts 353°